THOR 6

Last updated on Jan. 23, 2021, 7:13 a.m. UTC

1 36033U 09058B   21022.84872547  .00000003  00000-0  00000-0 0  9992
2 36033   0.0185 154.5632 0001916 149.5894 122.9262  1.00272156 41243
UTC
Height (km)
Latitude
Longitude
Inclination
Orbital Period
UTC large
Height (km)
Speed (km/s)
/
Latitude / Longitude
Inclination (degrees)
Orbital Period (minutes)
Azimuth
Elevation
Range (km)
Doppler Factor
iOS Compass Heading
iOS Angle

Next 30 passes for location: Hong Kong

Rise time Rise Azimuth (degrees) Set time Set Azimuth (degrees) Duration Max altitude (degrees)

No matching passes for this satellites